Powrót do katalogu

FALCON 9 R/B

AktywnyHEO
NORAD 62853·ROCKET BODY·🇺🇸 United States

Wystrzelony Jan 30, 2025 z Cape Canaveral Space Force Station

Loading…

Następne Przeloty (najbliższe 24 godziny)

TLE

ŚwieżeSource: Space-Track

Epoka: Sep 13, 2026, 23:43 UTC

1 62853U 25021B   26256.98822694 -.00000116  00000-0  91847-3 0  9994
2 62853  24.3704 246.5698 8273460 341.5212   0.5943  1.11109931  6579

Śledź FALCON 9 R/B w czasie rzeczywistym z AllMySat

Download on the App Store